Content
SEND FEEDBACK

Daily
Averages
Monthly
Summary
United States of America

LAKE PLACID, NEW YORK


Home > North America > United States > New York
Elevation: 1984 feet     Latitude: 44 15N     Longitude: 073 59W

WEATHER
 
SELECT A DAY
Number of Records: 224,748;   Date Range: 1/1/95 - 7/23/14
 
SHARE

PRINT THIS DATA

[ ← Previous Day ]
WEATHER ALMANAC - JANUARY 20, 2013
[ Next Day → ]
[ °C ]   °F
Weather ElementAverageHighLow
Temperature24.3 °F39.9 °F (3:51 am)7 °F (11:51 pm)
Dewpoint17.1 °F30.2 °F (7:37 am)-2 °F (11:51 pm)
Humidity74.6 %93 % (7:55 am)51 % (3:51 am)
Barometer29.56 in29.94 in (11:51 pm)29.32 in (6:51 am)
Wind Speed16 mph26.5 mph (10:22 am)
Wind Gust50.6 mph (10:22 am)
Weather ElementAverage
Visibility2.8 mi
Wind DirectionWSW (244.1 °)

Weather ElementTotal
Precipitation0.05 in
Heating Degree Days41.6 (Base 65)
Averaged from 68 records on January 20, 2013
WEATHER CONDITIONS BREAKOUT
WIND DIRECTION BREAKOUT
WEATHER BY HOUR - JANUARY 20, 2013
[ °C ]   °F
Local TimeTemperatureDewpointHumidityBarometerVisibilityWind DirectionWind SpeedGust SpeedPrecipitationEventsConditions
1:51 AM37.9 °F27.0 °F65 %29.58 in10.0 miSW (220°)13.8 mphOvercast
2:51 AM37.9 °F26.1 °F62 %29.53 in10.0 miSSW (210°)11.5 mphOvercast
3:51 AM39.9 °F23.0 °F51 %29.47 in10.0 miSSW (210°)17.3 mph24.2 mphOvercast
4:51 AM39.9 °F23.0 °F51 %29.41 in10.0 miSSW (200°)18.4 mph29.9 mphOvercast
5:51 AM39.9 °F24.1 °F53 %29.36 in10.0 miSSW (200°)20.7 mph32.2 mphOvercast
6:51 AM39.0 °F25.0 °F57 %29.32 in10.0 miSW (220°)25.3 mph38.0 mphOvercast
7:31 AM35.6 °F28.4 °F75 %29.33 in5.0 miWSW (240°)18.4 mph34.5 mph0.00 inSnowLight Snow
7:37 AM35.6 °F30.2 °F81 %29.35 in2.5 miWSW (240°)20.7 mph33.4 mph0.00 inSnowLight Snow
7:44 AM33.8 °F30.2 °F87 %29.36 in0.8 miWSW (240°)20.7 mph38.0 mph0.00 inSnowLight Snow
7:51 AM32.0 °F30.0 °F92 %29.42 in0.5 miWest (260°)15.0 mph35.7 mph0.00 inFog-SnowSnow
7:55 AM32.0 °F30.2 °F93 %29.38 in0.5 miWSW (250°)21.9 mph32.2 mph0.00 inFog-SnowSnow
8:07 AM30.2 °F28.4 °F93 %29.39 in0.2 miWSW (250°)15.0 mph32.2 mph0.00 inFog-SnowSnow
8:16 AM30.2 °F28.4 °F93 %29.39 in1.0 miWSW (250°)12.7 mph26.5 mph0.00 inSnowLight Snow
8:19 AM30.2 °F28.4 °F93 %29.38 in2.0 miWSW (240°)15.0 mph26.5 mph0.00 inSnowLight Snow
8:29 AM30.2 °F26.6 °F86 %29.39 in3.0 miWSW (240°)20.7 mph34.5 mph0.00 inSnowLight Snow
8:36 AM30.2 °F26.6 °F86 %29.39 in1.8 miWSW (240°)18.4 mph32.2 mph0.00 inSnowLight Snow
8:51 AM30.0 °F27.0 °F88 %29.44 in1.2 miSW (230°)15.0 mph24.2 mph0.00 inSnowLight Snow
9:08 AM30.2 °F26.6 °F86 %29.39 in3.0 miWSW (240°)11.5 mph28.8 mph0.00 inSnowLight Snow
9:21 AM30.2 °F26.6 °F86 %29.40 in1.8 miWSW (250°)11.5 mph18.4 mph0.00 inSnowLight Snow
9:51 AM30.0 °F26.1 °F85 %29.45 in1.2 miWSW (240°)19.6 mph31.1 mph0.00 inSnowLight Snow
10:22 AM28.4 °F24.8 °F86 %29.42 in0.2 miWSW (240°)26.5 mph50.6 mph0.01 inSnowHeavy Snow
10:31 AM28.4 °F23.0 °F80 %29.43 in0.5 miWSW (240°)20.7 mph40.3 mph0.01 inSnowSnow
10:42 AM28.4 °F21.2 °F74 %29.44 in1.2 miWSW (240°)24.2 mph36.8 mph0.01 inSnowLight Snow
10:46 AM28.4 °F21.2 °F74 %29.44 in3.0 miWSW (240°)20.7 mph36.8 mph0.01 inHaze
10:51 AM28.9 °F19.9 °F69 %29.49 in8.0 miWSW (240°)25.3 mph40.3 mph0.01 inOvercast
11:51 AM28.9 °F16.0 °F58 %29.49 in1.8 miWSW (240°)18.4 mph40.3 mph0.00 inSnowLight Snow
12:01 PM26.6 °F17.6 °F69 %29.46 in0.5 miWest (260°)17.3 mph39.1 mph0.00 inSnowSnow
12:08 PM24.8 °F19.4 °F80 %29.47 in0.2 miWest (260°)18.4 mph35.7 mph0.00 inSnowHeavy Snow
12:18 PM24.8 °F19.4 °F80 %29.47 in0.8 miWest (260°)12.7 mph32.2 mph0.00 inSnowLight Snow
12:26 PM24.8 °F21.2 °F86 %29.47 in0.2 miWSW (250°)13.8 mph25.3 mph0.00 inFog-SnowSnow
12:34 PM24.8 °F19.4 °F80 %29.48 in0.5 miWSW (250°)18.4 mph34.5 mph0.00 inSnowSnow
12:39 PM24.8 °F19.4 °F80 %29.49 in0.2 miWest (260°)16.1 mph32.2 mph0.00 inSnowHeavy Snow
12:51 PM24.1 °F21.0 °F88 %29.54 in0.2 miWest (260°)18.4 mph27.6 mph0.00 inFog-SnowSnow
12:55 PM24.8 °F19.4 °F80 %29.49 in0.2 miWSW (250°)12.7 mph27.6 mph0.00 inFog-SnowLight Snow
1:02 PM24.8 °F19.4 °F80 %29.50 in0.5 miWSW (250°)21.9 mph33.4 mph0.00 inSnowSnow
1:27 PM24.8 °F15.8 °F69 %29.52 in0.5 miWSW (250°)19.6 mph40.3 mph0.00 inSnowSnow
1:41 PM24.8 °F12.2 °F59 %29.53 in1.0 miWSW (250°)26.5 mph40.3 mph0.00 inSnowLight Snow
1:51 PM24.1 °F14.0 °F65 %29.59 in1.0 miWSW (250°)20.7 mph34.5 mph0.00 inSnowLight Snow
2:02 PM23.0 °F15.8 °F74 %29.55 in0.5 miWest (260°)12.7 mph40.3 mph0.00 inSnowSnow
2:10 PM21.2 °F15.8 °F80 %29.56 in1.0 miWSW (240°)12.7 mph35.7 mph0.00 inSnowLight Snow
2:33 PM21.2 °F12.2 °F68 %29.57 in2.0 miWSW (250°)18.4 mph32.2 mph0.00 inSnowLight Snow
2:43 PM21.2 °F14.0 °F74 %29.58 in1.0 miWSW (240°)17.3 mph36.8 mph0.00 inSnowLight Snow
2:51 PM21.9 °F12.9 °F68 %29.64 in1.2 miWSW (240°)21.9 mph36.8 mph0.00 inSnowLight Snow
2:56 PM21.2 °F12.2 °F68 %29.59 in3.0 miWSW (250°)16.1 mph35.7 mph0.00 inSnowLight Snow
3:07 PM21.2 °F12.2 °F68 %29.60 in2.5 miWSW (250°)13.8 mph39.1 mph0.00 inSnowLight Snow
3:16 PM21.2 °F12.2 °F68 %29.61 in1.0 miWSW (250°)12.7 mph25.3 mph0.00 inSnowLight Snow
3:25 PM19.4 °F14.0 °F80 %29.61 in0.5 miWSW (250°)12.7 mph32.2 mph0.00 inSnowSnow
3:46 PM19.4 °F12.2 °F74 %29.64 in1.5 miWSW (250°)16.1 mph27.6 mph0.00 inSnowLight Snow
3:51 PM19.9 °F12.9 °F74 %29.69 in0.8 miWSW (250°)16.1 mph28.8 mph0.00 inSnowLight Snow
4:14 PM19.4 °F12.2 °F74 %29.66 in1.0 miWSW (250°)15.0 mph28.8 mph0.00 inSnowLight Snow
4:21 PM17.6 °F12.2 °F79 %29.67 in0.5 miWest (260°)17.3 mph32.2 mph0.00 inSnowSnow
4:28 PM17.6 °F12.2 °F79 %29.67 in0.2 miWest (260°)13.8 mph28.8 mph0.00 inSnowHeavy Snow
4:37 PM17.6 °F12.2 °F79 %29.68 in0.5 miWest (260°)8.1 mph19.6 mph0.00 inSnowSnow
4:45 PM17.6 °F12.2 °F79 %29.68 in1.0 miVariable6.9 mph0.00 inSnowLight Snow
4:51 PM18.0 °F12.0 °F78 %29.75 in1.8 miWest (280°)8.1 mph19.6 mph0.00 inSnowLight Snow
5:14 PM17.6 °F10.4 °F73 %29.70 in3.0 miWest (260°)10.4 mph18.4 mph0.00 inSnowLight Snow
5:39 PM17.6 °F6.8 °F63 %29.72 in6.0 miWest (270°)15.0 mph23.0 mph0.00 inSnowLight Snow
5:47 PM15.8 °F8.6 °F73 %29.72 in2.5 miWest (270°)12.7 mph23.0 mph0.00 inSnowLight Snow
5:56 PM15.8 °F8.6 °F73 %29.72 in3.0 miWest (260°)12.7 mph20.7 mph0.00 inSnowLight Snow
6:51 PM15.1 °F6.1 °F68 %29.82 in2.5 miWest (260°)13.8 mph27.6 mph0.00 inSnowLight Snow
6:56 PM15.8 °F6.8 °F68 %29.76 in1.8 miWest (260°)10.4 mph21.9 mph0.00 inSnowLight Snow
7:16 PM14.0 °F6.8 °F73 %29.78 in3.0 miWest (260°)11.5 mph24.2 mph0.00 inSnowLight Snow
7:32 PM12.2 °F5.0 °F73 %29.78 in2.0 miWSW (250°)13.8 mph27.6 mph0.00 inSnowLight Snow
7:51 PM12.9 °F3.0 °F65 %29.87 in6.0 miWSW (250°)11.5 mph20.7 mph0.00 inSnowLight Snow
8:51 PM10.0 °F-0.9 °F61 %29.89 in10.0 miWest (260°)10.4 mph18.4 mphPartly Cloudy
9:51 PM9.0 °F0.0 °F67 %29.91 in8.0 miWest (270°)9.2 mph19.6 mphOvercast
10:51 PM8.1 °F-0.9 °F67 %29.92 in10.0 miWest (260°)10.4 mph17.3 mphOvercast
11:51 PM7.0 °F-2.0 °F67 %29.94 in10.0 miWest (270°)9.2 mph16.1 mphMostly Cloudy
Hourly data recorded from KSLK, located miles away from Lake Placid, New York







STORIES FROM OUR PARTNERS